STARLINK-3794 (52631 NORAD) Tracking and Keplerian Element Data
This shows tracking and keplerian element data for the satellite.
Feedback or suggestion? Click here.
Element | Value |
Catalog | 52631 |
Name | STARLINK-3794 |
Epoch Orbit | 130 |
Epoch Day | 167.08334491 |
Epoch Year | 2022 |
RAAN | 280.002 |
Inclination | 53.2143 |
Eccentricity | 0.0001624 |
Argument of Perigee | 28.3662 |
Mean Anonmoly | 8.2836 |
Mean Motion | 15.73197814 |
Decay Rate | 0.00061644 |
L1 | 1 52631U 22052AK 22167.08334491 .00061644 00000+0 44045-3 0 9998 |
L2 | 2 52631 53.2143 280.0020 0001624 28.3662 8.2836 15.73197814 1306 |
Live tracking and technical data element details for STARLINK-3794 (NORAD 52631). STARLINK-3794 can be tracked NOW for your location showing map with azimuth and elevation plus other details from your city location.
Track the satellite on the map from your city or location and see movement details for azimuth, elevation, latitude, longitude, range, height, and movement on the map or in text.
IsCatalogInMostPopularTable: catalog: 52631, numindb: 2
Update: records affected: 1
GetName: 52631 STARLINK-3794
Hit Count: updated at: Sat, 25 Jun 2022 04:22:31 GMT